Wind_Speed
26 25 22 21 20 19 18 17 15 13 11 9 7 4 4 4 4 4 4 5 6 7 8 8 8 8 7 6 6 6 7 6 6 6 6 6 6 6 5 4 3 3 3 3
29 27 25 24 23 21 20 19 17 16 14 12 10 8 6 5 4 4 4 4 6 8 8 7 7 7 8 7 5 6 6 6 6 6 6 7 6 6 5 4 4 4 4 4
30 29 28 27 25 23 21 20 20 19 17 16 13 10 8 6 5 4 4 4 6 6 6 6 6 7 7 6 6 6 5 5 6 6 6 7 6 6 6 5 4 4 5 5
32 31 31 29 27 25 23 22 23 22 20 19 17 13 10 8 6 5 5 5 5 5 5 6 6 6 6 6 6 6 5 5 6 6 6 7 7 7 6 5 5 5 6 6
33 33 32 31 28 27 26 26 25 24 23 21 18 16 12 10 8 6 6 6 6 5 5 6 6 6 6 6 6 6 6 6 6 7 7 7 8 7 7 6 7 7 7 6
35 35 34 33 31 30 29 28 27 26 25 23 20 17 13 11 10 9 8 8 7 7 6 7 7 7 8 7 7 7 7 7 7 8 8 8 8 8 7 7 7 8 8 8
37 36 35 34 34 33 31 30 29 28 28 24 21 19 14 13 12 11 10 9 8 8 8 8 8 8 7 7 7 7 8 8 8 9 9 9 10 9 8 8 8 9 9 9
37 36 36 35 34 33 32 31 30 30 28 25 23 21 17 15 14 13 11 11 10 9 9 9 8 7 7 7 8 8 9 9 10 10 9 10 10 10 9 9 9 9 10 9
37 36 36 36 35 34 33 33 31 31 29 28 25 23 20 18 15 13 12 11 11 10 9 9 9 9 9 9 10 10 11 11 12 11 10 11 11 11 11 11 10 10 10 9
38 38 37 37 37 36 35 33 33 32 31 29 27 24 21 19 16 14 12 11 11 10 9 10 10 10 10 10 11 12 12 12 13 12 12 12 12 12 12 12 11 11 11 10
38 38 38 38 38 36 35 35 34 33 32 30 27 24 21 19 17 14 13 12 12 12 11 10 10 10 11 12 12 12 13 13 13 13 13 13 13 13 12 12 12 11 11 11
37 38 38 38 37 36 35 34 33 33 31 29 28 24 22 20 19 16 15 15 14 13 11 11 10 10 12 13 13 13 14 14 14 13 12 13 14 14 13 13 12 12 12 11
37 38 38 38 37 37 36 34 33 32 32 31 29 26 23 21 20 19 18 16 15 14 13 13 13 12 12 13 13 12 13 14 13 13 13 13 13 13 13 13 13 13 12 12
37 37 36 36 36 35 35 34 33 32 33 31 29 27 24 22 20 20 19 18 16 15 15 15 14 13 12 13 12 12 13 13 13 13 13 12 12 13 13 13 13 12 12 13
37 36 34 34 34 34 34 33 32 32 31 30 28 28 26 24 23 21 20 19 18 16 16 15 14 13 13 14 13 14 14 13 13 12 13 12 12 13 12 12 12 13 14 14
36 35 34 34 33 33 33 33 32 31 30 29 29 27 26 25 23 22 21 20 19 18 17 17 16 15 15 14 14 14 14 14 13 13 13 13 13 13 13 13 13 14 15 15
35 34 34 34 33 33 34 32 31 31 30 29 28 26 26 24 23 22 22 21 20 19 19 18 17 16 16 16 16 15 14 14 14 14 14 14 15 15 15 15 15 15 16 16
33 34 34 34 34 35 33 32 31 30 29 28 27 26 25 23 23 22 21 20 20 19 19 19 18 18 18 17 16 16 15 15 15 15 15 16 16 16 16 17 16 17 17 17
32 32 33 34 34 34 34 33 31 30 28 27 26 26 25 24 24 22 20 20 20 21 20 20 20 20 18 17 16 16 16 16 16 16 16 17 17 17 17 17 17 17 18 18
32 32 33 34 34 35 34 33 31 30 28 26 25 24 25 24 24 22 21 20 20 20 20 20 20 18 18 17 17 16 17 17 17 17 17 17 17 17 18 18 18 18 19 19
32 31 31 32 33 34 33 32 31 30 28 26 24 24 24 24 22 21 21 21 21 20 20 19 19 18 17 18 18 17 17 18 18 17 17 17 18 18 18 18 18 19 19 18
32 31 31 31 32 32 32 32 31 29 27 26 25 24 23 23 22 21 22 22 21 21 20 19 19 18 18 18 18 18 19 18 18 18 18 18 18 18 19 19 19 19 19 19
32 31 30 30 30 30 30 31 31 29 28 27 26 25 23 23 22 22 22 22 21 19 19 19 19 19 19 19 19 19 19 19 19 19 18 18 18 19 20 20 20 20 20 20
33 31 30 29 29 28 29 30 30 29 29 28 27 26 24 23 23 23 23 23 22 21 21 20 20 20 20 20 21 21 21 20 20 20 19 19 19 19 20 20 20 20 20 20
33 32 30 30 29 28 28 28 29 29 29 29 29 28 27 26 26 25 24 23 22 22 21 21 21 21 21 21 21 21 21 20 20 20 20 20 19 19 20 20 20 20 20 20
32 31 31 31 30 29 29 29 29 29 29 29 30 29 29 28 27 25 24 23 22 22 22 22 22 22 22 21 21 20 20 20 20 20 20 19 19 19 20 20 20 20 20 20
Wind_Direction
223 224 226 227 229 230 230 231 235 237 242 246 248 261 297 320 325 341 351 8 13 9 0 2 8 10 10 11 15 21 24 23 17 10 9 11 8 1 354 356 351 348 341 340
225 225 224 224 226 228 229 229 232 236 241 243 250 260 275 289 296 309 330 352 359 355 354 354 1 6 1 360 4 16 23 24 13 9 6 8 6 1 351 341 332 330 325 325
226 225 225 225 226 227 228 229 232 234 240 245 250 256 263 274 275 287 310 333 345 347 356 356 355 358 357 7 8 8 13 11 5 3 4 2 0 1 352 340 332 323 316 313
224 224 224 225 225 228 227 228 230 233 237 242 250 254 257 264 269 274 293 308 321 323 332 335 338 340 344 349 350 354 356 356 355 354 351 353 355 354 352 340 324 314 313 309
224 223 224 224 224 225 226 228 230 233 237 241 249 255 255 257 262 274 282 285 294 303 307 314 317 323 324 326 329 335 338 347 349 347 341 338 341 340 338 332 320 316 307 299
222 222 223 222 222 223 223 227 230 234 238 241 247 253 252 252 256 265 276 277 277 280 292 301 304 306 311 315 318 320 325 330 334 336 338 332 331 329 323 317 314 313 310 304
221 222 222 222 222 223 224 226 229 233 237 241 246 252 254 253 255 260 266 268 269 271 281 291 297 299 305 311 303 303 313 314 319 322 328 329 325 323 318 313 310 307 307 305
222 221 221 221 223 224 225 228 232 236 240 243 246 250 252 253 253 257 261 264 267 268 277 286 291 300 295 307 306 302 307 310 309 309 312 316 317 316 311 310 306 301 303 303
222 221 221 221 222 224 225 227 232 236 241 244 247 250 252 253 254 258 260 263 265 268 279 281 285 293 295 301 309 308 306 307 308 303 303 307 307 307 307 307 305 303 304 305
221 220 220 220 221 223 225 228 230 235 239 243 246 250 253 253 255 257 258 260 263 268 272 273 283 284 288 297 302 302 303 305 304 299 297 299 302 302 303 304 302 302 303 302
219 219 218 220 221 223 225 227 230 235 239 242 245 248 250 251 252 252 252 255 258 265 269 275 281 281 289 296 297 299 300 301 302 299 296 294 298 299 303 303 301 305 306 301
218 219 218 219 221 222 225 228 231 234 238 240 244 245 246 249 249 249 252 257 261 264 269 271 276 280 291 297 297 296 297 298 299 297 298 297 295 297 301 301 301 302 306 301
218 218 218 218 219 221 224 227 230 233 237 239 241 242 243 246 248 250 253 258 265 265 268 270 271 281 291 296 297 298 300 298 296 294 298 300 298 297 298 296 296 298 302 303
217 218 219 220 222 224 225 227 230 233 236 238 240 240 240 243 247 250 254 258 262 262 267 270 271 282 292 294 295 294 300 300 295 294 297 298 297 294 293 294 295 296 300 303
216 216 215 217 219 222 225 227 229 234 237 238 239 239 240 243 248 250 253 257 258 263 269 273 273 277 291 295 290 298 298 300 295 295 295 294 295 294 293 295 296 295 298 298
217 216 214 215 217 220 223 225 228 232 234 236 237 237 238 243 246 247 251 255 257 261 268 274 276 280 286 292 292 293 295 299 298 296 291 289 290 290 291 294 296 296 297 297
217 216 215 215 217 221 223 224 227 231 235 238 239 239 240 241 243 246 250 254 259 263 269 273 276 279 282 285 286 286 290 295 295 294 292 290 289 288 289 290 292 293 292 291
216 217 217 217 218 222 224 225 227 231 233 236 238 238 240 241 241 243 247 252 258 263 269 272 274 276 280 280 280 280 284 288 288 289 289 289 287 286 286 288 288 287 289 290
216 217 218 219 221 224 224 225 227 230 232 234 237 238 239 240 241 242 245 254 259 263 268 268 271 275 274 274 275 278 280 283 286 285 285 287 288 286 286 286 286 287 287 289
215 217 219 220 222 224 225 226 228 230 233 235 237 238 238 241 243 244 248 253 259 263 268 268 270 269 269 272 272 275 278 281 283 284 285 286 287 286 285 286 287 286 287 289
216 218 220 221 223 225 226 227 229 231 232 234 237 238 239 242 244 244 247 252 259 264 266 265 264 264 268 272 274 277 281 282 282 282 283 285 286 287 288 289 289 288 289 289
219 220 222 223 225 226 227 227 228 231 231 234 237 239 240 240 241 241 245 251 258 263 265 264 263 263 268 272 276 279 283 284 283 281 282 285 287 287 289 290 290 289 291 290
221 223 225 226 228 229 228 228 229 230 231 233 237 238 237 239 240 243 247 253 255 258 261 264 263 266 271 275 278 281 283 285 283 279 281 284 286 289 290 290 291 291 292 292
223 224 226 228 229 231 231 230 231 230 230 231 233 235 237 239 241 244 248 253 255 258 261 265 266 270 273 276 278 281 282 283 282 280 282 283 285 287 290 290 291 291 292 292
225 226 228 230 231 232 232 231 232 232 231 231 232 234 237 240 242 244 248 253 256 258 262 265 268 273 274 276 277 279 281 282 283 280 282 283 284 287 289 291 292 292 294 294
227 229 231 233 233 233 231 231 232 233 234 233 234 234 236 239 240 243 248 252 255 256 261 265 269 272 273 274 276 279 280 281 282 281 280 281 284 287 289 290 290 293 297 299
Height
5892 5897 5900 5903 5905 5908 5910 5912 5913 5915 5916 5917 5919 5920 5921 5922 5922 5922 5921 5921 5920 5920 5919 5918 5917 5916 5915 5914 5912 5912 5911 5910 5909 5908 5907 5906 5905 5904 5903 5902 5901 5901 5900 5900
5889 5893 5897 5899 5901 5904 5907 5909 5911 5913 5914 5916 5917 5919 5920 5921 5922 5922 5922 5921 5920 5920 5919 5918 5917 5916 5915 5913 5912 5912 5911 5910 5909 5908 5907 5906 5905 5904 5903 5902 5901 5901 5900 5899
5885 5890 5892 5895 5898 5901 5905 5908 5909 5911 5912 5914 5916 5918 5919 5920 5921 5922 5921 5921 5920 5920 5919 5918 5917 5916 5915 5914 5913 5912 5912 5911 5909 5909 5908 5907 5906 5904 5903 5902 5901 5900 5900 5899
5878 5883 5887 5890 5894 5898 5902 5905 5907 5908 5910 5911 5914 5916 5918 5918 5920 5921 5921 5920 5920 5919 5919 5918 5917 5916 5915 5914 5913 5913 5912 5911 5909 5909 5908 5907 5906 5904 5903 5901 5900 5900 5899 5898
5873 5877 5882 5886 5891 5895 5898 5900 5903 5905 5907 5909 5911 5914 5916 5916 5918 5919 5920 5920 5919 5919 5918 5917 5917 5916 5915 5914 5913 5912 5911 5910 5909 5908 5907 5906 5905 5904 5902 5901 5900 5899 5898 5897
5867 5871 5876 5881 5885 5889 5893 5896 5899 5901 5903 5906 5909 5911 5913 5915 5916 5917 5918 5918 5918 5918 5917 5916 5916 5915 5914 5913 5913 5912 5910 5909 5908 5907 5906 5905 5904 5903 5901 5900 5899 5898 5897 5895
5860 5866 5871 5875 5879 5884 5888 5892 5894 5896 5899 5902 5906 5907 5911 5912 5914 5915 5916 5916 5916 5916 5916 5915 5914 5913 5912 5912 5911 5910 5910 5908 5907 5906 5905 5904 5903 5901 5900 5899 5898 5896 5895 5894
5855 5861 5866 5870 5875 5879 5883 5887 5891 5894 5896 5900 5902 5904 5908 5910 5911 5912 5913 5914 5915 5915 5914 5914 5913 5912 5911 5910 5910 5909 5908 5907 5906 5905 5904 5903 5901 5900 5898 5897 5896 5895 5893 5892
5849 5855 5860 5865 5870 5874 5877 5881 5886 5890 5892 5895 5898 5901 5904 5906 5908 5910 5911 5912 5912 5913 5912 5912 5911 5910 5910 5909 5908 5907 5906 5905 5904 5903 5902 5900 5899 5898 5896 5895 5894 5893 5891 5889
5842 5848 5854 5859 5863 5867 5873 5877 5881 5884 5887 5890 5894 5897 5901 5903 5905 5907 5908 5909 5910 5910 5910 5910 5909 5908 5908 5907 5906 5905 5904 5903 5901 5900 5899 5898 5897 5895 5894 5893 5892 5890 5889 5888
5836 5842 5847 5852 5857 5862 5867 5872 5875 5879 5883 5886 5889 5896 5897 5900 5902 5904 5905 5906 5907 5907 5907 5907 5906 5905 5905 5904 5903 5902 5901 5900 5898 5897 5896 5895 5894 5892 5891 5890 5889 5888 5887 5886
5829 5835 5841 5847 5852 5857 5862 5867 5871 5875 5878 5882 5886 5893 5893 5896 5899 5901 5902 5903 5904 5905 5905 5904 5903 5903 5902 5901 5900 5899 5899 5897 5896 5895 5893 5892 5891 5890 5889 5888 5887 5886 5885 5884
5824 5829 5835 5841 5847 5852 5856 5861 5866 5870 5874 5877 5881 5889 5889 5892 5894 5897 5899 5900 5901 5901 5902 5901 5900 5900 5899 5898 5897 5896 5895 5893 5892 5892 5891 5889 5888 5887 5886 5885 5885 5884 5882 5882
5818 5824 5831 5837 5842 5847 5851 5856 5861 5865 5868 5872 5877 5882 5885 5888 5890 5893 5895 5896 5897 5897 5898 5898 5897 5897 5896 5895 5893 5893 5892 5890 5889 5889 5888 5886 5885 5884 5883 5883 5882 5881 5880 5879
5813 5819 5825 5831 5837 5842 5847 5852 5856 5860 5864 5868 5873 5877 5881 5883 5886 5888 5890 5891 5892 5893 5894 5894 5894 5894 5893 5892 5891 5889 5889 5888 5887 5886 5885 5884 5883 5882 5881 5880 5879 5878 5877 5876
5808 5815 5821 5826 5831 5837 5841 5846 5851 5855 5859 5863 5867 5872 5876 5878 5881 5883 5884 5886 5888 5889 5890 5890 5890 5890 5890 5889 5888 5887 5887 5886 5885 5884 5883 5882 5881 5880 5878 5878 5877 5876 5875 5873
5804 5811 5816 5822 5827 5831 5836 5841 5846 5850 5854 5859 5862 5868 5871 5874 5876 5878 5880 5881 5883 5884 5885 5885 5886 5886 5886 5886 5885 5885 5884 5883 5882 5881 5880 5879 5878 5877 5876 5875 5874 5873 5871 5870
5800 5806 5812 5817 5823 5827 5834 5837 5841 5845 5850 5854 5858 5862 5866 5869 5871 5873 5875 5877 5878 5879 5880 5881 5881 5881 5881 5881 5881 5881 5881 5880 5879 5878 5877 5876 5875 5874 5873 5872 5870 5869 5868 5867
5796 5802 5807 5812 5817 5822 5828 5832 5836 5841 5845 5849 5853 5856 5860 5863 5865 5868 5871 5872 5874 5875 5875 5876 5877 5877 5877 5877 5877 5877 5877 5876 5875 5874 5873 5872 5871 5870 5869 5868 5866 5865 5863 5862
5792 5797 5803 5807 5812 5817 5823 5827 5832 5837 5840 5845 5848 5851 5854 5858 5861 5865 5866 5867 5869 5870 5870 5871 5871 5872 5872 5873 5873 5873 5872 5872 5871 5870 5869 5868 5866 5865 5864 5863 5862 5860 5858 5857
5788 5793 5797 5802 5807 5812 5818 5822 5827 5833 5837 5840 5843 5846 5850 5853 5857 5860 5861 5862 5863 5864 5865 5866 5867 5867 5867 5868 5868 5868 5868 5867 5866 5866 5865 5864 5862 5861 5860 5859 5857 5856 5854 5853
5783 5788 5793 5798 5803 5809 5812 5817 5823 5827 5831 5834 5838 5841 5845 5848 5851 5854 5855 5857 5858 5859 5860 5861 5862 5863 5863 5864 5864 5864 5863 5863 5862 5861 5860 5859 5858 5857 5856 5854 5852 5851 5850 5848
5779 5785 5789 5795 5800 5803 5807 5812 5816 5821 5825 5829 5833 5837 5840 5843 5846 5848 5851 5852 5853 5854 5855 5856 5857 5858 5859 5859 5859 5859 5859 5858 5857 5856 5856 5854 5853 5852 5851 5849 5848 5847 5845 5843
5775 5780 5784 5789 5794 5798 5802 5807 5810 5815 5819 5823 5827 5831 5834 5838 5841 5843 5846 5847 5848 5849 5850 5852 5853 5853 5854 5854 5854 5854 5854 5853 5852 5851 5850 5849 5848 5847 5846 5844 5843 5842 5840 5838
5769 5774 5779 5784 5788 5793 5797 5801 5805 5809 5814 5818 5821 5825 5829 5832 5835 5838 5840 5842 5843 5844 5845 5846 5848 5848 5849 5849 5849 5848 5848 5847 5847 5846 5845 5844 5843 5842 5841 5840 5838 5837 5835 5833
5764 5769 5774 5778 5783 5787 5792 5796 5800 5804 5808 5812 5816 5819 5823 5826 5829 5832 5834 5836 5838 5839 5840 5841 5842 5843 5843 5843 5843 5842 5842 5842 5841 5841 5840 5839 5838 5837 5836 5835 5833 5832 5830 5828